Time,TemperatureF,DewpointF,PressureIn,WindDirection,WindDirectionDegrees,WindSpeedMPH,WindSpeedGustMPH,Humidity,HourlyPrecipIn,Conditions,Clouds,dailyrainin,SoftwareType,DateUTC
2013-02-14 00:04:00,32.4,24.4,29.80,NW,313,1.0,2.0,72,0.00,,,0.00,Wunderground v.1.15,2013-02-14 05:04:00,
2013-02-14 00:09:00,32.4,24.4,29.80,NW,313,0.0,2.0,72,0.00,,,0.00,Wunderground v.1.15,2013-02-14 05:09:00,
2013-02-14 00:14:00,32.5,24.5,29.80,NW,313,0.0,2.0,72,0.00,,,0.00,Wunderground v.1.15,2013-02-14 05:14:00,
2013-02-14 00:19:00,32.4,24.0,29.81,NW,313,2.0,2.0,71,0.00,,,0.00,Wunderground v.1.15,2013-02-14 05:19:00,
2013-02-14 00:25:00,32.4,24.4,29.81,NW,313,0.0,2.0,72,0.00,,,0.00,Wunderground v.1.15,2013-02-14 05:25:00,
2013-02-14 00:30:00,32.5,24.1,29.82,NW,313,0.0,1.0,71,0.00,,,0.00,Wunderground v.1.15,2013-02-14 05:30:00,
2013-02-14 00:35:00,32.6,24.6,29.82,NW,313,0.0,1.0,72,0.00,,,0.00,Wunderground v.1.15,2013-02-14 05:35:00,
2013-02-14 00:40:00,32.8,24.4,29.82,NW,313,0.0,0.0,71,0.00,,,0.00,Wunderground v.1.15,2013-02-14 05:40:00,
2013-02-14 00:45:00,32.9,24.2,29.82,NW,313,1.0,1.0,70,0.00,,,0.00,Wunderground v.1.15,2013-02-14 05:45:00,
2013-02-14 00:50:00,32.9,24.2,29.82,NW,313,0.0,0.0,70,0.00,,,0.00,Wunderground v.1.15,2013-02-14 05:50:00,
2013-02-14 00:55:00,32.6,23.6,29.81,NW,313,3.0,3.0,69,0.00,,,0.00,Wunderground v.1.15,2013-02-14 05:55:00,
2013-02-14 01:01:00,32.3,23.6,29.81,WNW,303,3.0,3.0,70,0.00,,,0.00,Wunderground v.1.15,2013-02-14 06:01:00,
2013-02-14 01:06:00,32.2,24.2,29.81,WNW,302,1.0,3.0,72,0.00,,,0.00,Wunderground v.1.15,2013-02-14 06:06:00,
2013-02-14 01:11:00,32.0,24.0,29.81,West,279,0.0,4.0,72,0.00,,,0.00,Wunderground v.1.15,2013-02-14 06:11:00,
2013-02-14 01:16:00,31.9,24.2,29.81,West,279,1.0,4.0,73,0.00,,,0.00,Wunderground v.1.15,2013-02-14 06:16:00,
2013-02-14 01:22:00,31.6,24.9,29.81,NW,313,1.0,2.0,76,0.00,,,0.00,Wunderground v.1.15,2013-02-14 06:22:00,
2013-02-14 01:28:00,31.3,24.9,29.80,NW,313,2.0,2.0,77,0.00,,,0.00,Wunderground v.1.15,2013-02-14 06:28:00,
2013-02-14 01:33:00,31.0,25.2,29.80,NW,313,1.0,2.0,79,0.00,,,0.00,Wunderground v.1.15,2013-02-14 06:33:00,
2013-02-14 01:38:00,30.9,25.5,29.81,NW,313,1.0,2.0,80,0.00,,,0.00,Wunderground v.1.15,2013-02-14 06:38:00,
2013-02-14 01:44:00,30.6,25.5,29.80,NW,313,0.0,2.0,81,0.00,,,0.00,Wunderground v.1.15,2013-02-14 06:44:00,
2013-02-14 01:49:00,30.5,25.4,29.80,NW,313,0.0,0.0,81,0.00,,,0.00,Wunderground v.1.15,2013-02-14 06:49:00,
2013-02-14 01:54:00,30.3,25.5,29.80,NW,313,0.0,1.0,82,0.00,,,0.00,Wunderground v.1.15,2013-02-14 06:54:00,
2013-02-14 01:59:00,30.1,25.8,29.80,NW,313,0.0,0.0,84,0.00,,,0.00,Wunderground v.1.15,2013-02-14 06:59:00,
2013-02-14 02:04:00,30.0,26.0,29.80,NW,313,1.0,2.0,85,0.00,,,0.00,Wunderground v.1.15,2013-02-14 07:04:00,
2013-02-14 02:10:00,29.8,26.1,29.80,NW,313,0.0,1.0,86,0.00,,,0.00,Wunderground v.1.15,2013-02-14 07:10:00,
2013-02-14 02:15:00,29.8,26.1,29.80,NW,313,0.0,2.0,86,0.00,,,0.00,Wunderground v.1.15,2013-02-14 07:15:00,
2013-02-14 02:20:00,29.8,26.1,29.80,NW,313,0.0,1.0,86,0.00,,,0.00,Wunderground v.1.15,2013-02-14 07:20:00,
2013-02-14 02:25:00,29.9,26.2,29.80,NW,313,0.0,1.0,86,0.00,,,0.00,Wunderground v.1.15,2013-02-14 07:25:00,
2013-02-14 02:30:00,30.0,26.3,29.81,NW,313,0.0,0.0,86,0.00,,,0.00,Wunderground v.1.15,2013-02-14 07:30:00,
2013-02-14 02:35:00,30.1,26.4,29.80,NW,313,0.0,0.0,86,0.00,,,0.00,Wunderground v.1.15,2013-02-14 07:35:00,
2013-02-14 02:40:00,30.3,26.6,29.81,NW,313,0.0,0.0,86,0.00,,,0.00,Wunderground v.1.15,2013-02-14 07:40:00,
2013-02-14 02:45:00,30.3,26.6,29.80,NW,313,0.0,0.0,86,0.00,,,0.00,Wunderground v.1.15,2013-02-14 07:45:00,
2013-02-14 02:50:00,30.1,26.4,29.81,NW,313,0.0,0.0,86,0.00,,,0.00,Wunderground v.1.15,2013-02-14 07:50:00,
2013-02-14 02:55:00,30.1,26.4,29.81,NW,313,0.0,0.0,86,0.00,,,0.00,Wunderground v.1.15,2013-02-14 07:55:00,
2013-02-14 03:00:00,30.0,26.3,29.81,NW,313,0.0,1.0,86,0.00,,,0.00,Wunderground v.1.15,2013-02-14 08:00:00,
2013-02-14 03:05:00,29.8,26.1,29.81,NW,313,0.0,1.0,86,0.00,,,0.00,Wunderground v.1.15,2013-02-14 08:05:00,
2013-02-14 03:10:00,29.7,26.0,29.80,NW,313,0.0,0.0,86,0.00,,,0.00,Wunderground v.1.15,2013-02-14 08:10:00,
2013-02-14 03:16:00,29.6,25.9,29.80,NW,313,0.0,1.0,86,0.00,,,0.00,Wunderground v.1.15,2013-02-14 08:16:00,
2013-02-14 03:21:00,29.4,25.7,29.80,NW,313,0.0,0.0,86,0.00,,,0.00,Wunderground v.1.15,2013-02-14 08:21:00,
2013-02-14 03:26:00,29.2,25.5,29.81,NW,313,0.0,2.0,86,0.00,,,0.00,Wunderground v.1.15,2013-02-14 08:26:00,
2013-02-14 03:31:00,28.7,25.0,29.81,NW,313,0.0,2.0,86,0.00,,,0.00,Wunderground v.1.15,2013-02-14 08:31:00,
2013-02-14 03:36:00,28.5,25.1,29.82,NW,313,0.0,2.0,87,0.00,,,0.00,Wunderground v.1.15,2013-02-14 08:36:00,
2013-02-14 03:41:00,28.4,25.0,29.83,NW,313,0.0,2.0,87,0.00,,,0.00,Wunderground v.1.15,2013-02-14 08:41:00,
2013-02-14 03:46:00,28.3,24.9,29.83,NW,313,1.0,2.0,87,0.00,,,0.00,Wunderground v.1.15,2013-02-14 08:46:00,
2013-02-14 03:51:00,28.5,24.8,29.83,NW,313,2.0,3.0,86,0.00,,,0.00,Wunderground v.1.15,2013-02-14 08:51:00,
2013-02-14 03:56:00,28.7,24.8,29.82,NW,313,0.0,3.0,85,0.00,,,0.00,Wunderground v.1.15,2013-02-14 08:56:00,
2013-02-14 04:01:00,28.9,24.7,29.83,NW,313,0.0,3.0,84,0.00,,,0.00,Wunderground v.1.15,2013-02-14 09:01:00,
2013-02-14 04:06:00,29.0,24.8,29.83,NW,313,0.0,3.0,84,0.00,,,0.00,Wunderground v.1.15,2013-02-14 09:06:00,
2013-02-14 04:11:00,29.0,24.5,29.83,NW,313,0.0,1.0,83,0.00,,,0.00,Wunderground v.1.15,2013-02-14 09:11:00,
2013-02-14 04:16:00,29.0,24.5,29.83,NW,313,0.0,2.0,83,0.00,,,0.00,Wunderground v.1.15,2013-02-14 09:16:00,
2013-02-14 04:21:00,29.1,24.3,29.83,NW,313,2.0,4.0,82,0.00,,,0.00,Wunderground v.1.15,2013-02-14 09:21:00,
2013-02-14 04:26:00,29.4,24.0,29.83,WNW,295,3.0,5.0,80,0.00,,,0.00,Wunderground v.1.15,2013-02-14 09:26:00,
2013-02-14 04:31:00,29.3,23.6,29.84,WNW,300,2.0,4.0,79,0.00,,,0.00,Wunderground v.1.15,2013-02-14 09:31:00,
2013-02-14 04:36:00,29.3,23.6,29.84,NW,317,1.0,4.0,79,0.00,,,0.00,Wunderground v.1.15,2013-02-14 09:36:00,
2013-02-14 04:41:00,29.4,23.7,29.84,NW,317,0.0,2.0,79,0.00,,,0.00,Wunderground v.1.15,2013-02-14 09:41:00,
2013-02-14 04:46:00,31.0,27.9,29.85,NW,315,1.0,3.0,88,0.00,,,0.00,Wunderground v.1.15,2013-02-14 09:46:00,
2013-02-14 04:52:00,31.1,26.2,29.85,NW,306,2.0,6.0,82,0.00,,,0.00,Wunderground v.1.15,2013-02-14 09:52:00,
2013-02-14 04:57:00,35.8,33.2,29.85,NW,306,1.0,6.0,90,0.00,,,0.00,Wunderground v.1.15,2013-02-14 09:57:00,
2013-02-14 05:02:00,38.3,35.6,29.85,NW,307,3.0,5.0,90,0.00,,,0.00,Wunderground v.1.15,2013-02-14 10:02:00,
2013-02-14 05:07:00,38.3,35.6,29.85,NW,307,0.0,5.0,90,0.00,,,0.00,Wunderground v.1.15,2013-02-14 10:07:00,
2013-02-14 05:12:00,41.6,38.9,29.84,NW,307,1.0,2.0,90,0.00,,,0.00,Wunderground v.1.15,2013-02-14 10:12:00,
2013-02-14 05:17:00,38.5,36.1,29.84,NW,307,1.0,2.0,91,0.00,,,0.00,Wunderground v.1.15,2013-02-14 10:17:00,
2013-02-14 05:22:00,41.4,38.7,29.84,NW,307,1.0,2.0,90,0.00,,,0.00,Wunderground v.1.15,2013-02-14 10:22:00,
2013-02-14 05:27:00,38.4,35.7,29.84,NW,307,1.0,5.0,90,0.00,,,0.00,Wunderground v.1.15,2013-02-14 10:27:00,
2013-02-14 05:32:00,36.2,32.7,29.85,WNW,302,3.0,4.0,87,0.00,,,0.00,Wunderground v.1.15,2013-02-14 10:32:00,
2013-02-14 05:37:00,33.9,29.3,29.85,NW,307,1.0,2.0,83,0.00,,,0.00,Wunderground v.1.15,2013-02-14 10:37:00,
2013-02-14 05:42:00,31.8,25.1,29.85,NW,307,1.0,3.0,76,0.00,,,0.00,Wunderground v.1.15,2013-02-14 10:42:00,
2013-02-14 05:47:00,30.4,23.4,29.85,NW,309,2.0,2.0,75,0.00,,,0.00,Wunderground v.1.15,2013-02-14 10:47:00,
2013-02-14 05:52:00,29.4,22.5,29.85,NW,309,1.0,3.0,75,0.00,,,0.00,Wunderground v.1.15,2013-02-14 10:52:00,
2013-02-14 05:57:00,28.9,22.0,29.85,NW,309,2.0,2.0,75,0.00,,,0.00,Wunderground v.1.15,2013-02-14 10:57:00,
2013-02-14 06:02:00,28.5,21.9,29.85,NW,309,1.0,2.0,76,0.00,,,0.00,Wunderground v.1.15,2013-02-14 11:02:00,
2013-02-14 06:07:00,28.3,21.7,29.85,NW,309,2.0,2.0,76,0.00,,,0.00,Wunderground v.1.15,2013-02-14 11:07:00,
2013-02-14 06:12:00,28.1,21.5,29.85,NW,309,1.0,3.0,76,0.00,,,0.00,Wunderground v.1.15,2013-02-14 11:12:00,
2013-02-14 06:17:00,28.0,21.4,29.86,NW,309,3.0,3.0,76,0.00,,,0.00,Wunderground v.1.15,2013-02-14 11:17:00,
2013-02-14 06:22:00,28.0,21.4,29.87,NW,313,3.0,6.0,76,0.00,,,0.00,Wunderground v.1.15,2013-02-14 11:22:00,
2013-02-14 06:27:00,27.9,21.0,29.88,NW,322,1.0,2.0,75,0.00,,,0.00,Wunderground v.1.15,2013-02-14 11:27:00,
2013-02-14 06:32:00,27.8,21.2,29.88,NW,324,2.0,3.0,76,0.00,,,0.00,Wunderground v.1.15,2013-02-14 11:32:00,
2013-02-14 06:37:00,27.7,21.1,29.88,NW,322,1.0,2.0,76,0.00,,,0.00,Wunderground v.1.15,2013-02-14 11:37:00,
2013-02-14 06:42:00,27.6,21.0,29.88,NW,321,1.0,3.0,76,0.00,,,0.00,Wunderground v.1.15,2013-02-14 11:42:00,
2013-02-14 06:47:00,27.6,21.0,29.88,NW,322,1.0,2.0,76,0.00,,,0.00,Wunderground v.1.15,2013-02-14 11:47:00,
2013-02-14 06:52:00,27.5,20.9,29.88,NW,306,0.0,4.0,76,0.00,,,0.00,Wunderground v.1.15,2013-02-14 11:52:00,
2013-02-14 06:57:00,27.5,20.9,29.88,NW,310,1.0,2.0,76,0.00,,,0.00,Wunderground v.1.15,2013-02-14 11:57:00,
2013-02-14 07:02:00,27.5,20.9,29.88,NW,309,2.0,4.0,76,0.00,,,0.00,Wunderground v.1.15,2013-02-14 12:02:00,
2013-02-14 07:07:00,27.5,20.9,29.89,NW,310,1.0,1.0,76,0.00,,,0.00,Wunderground v.1.15,2013-02-14 12:07:00,
2013-02-14 07:12:00,27.6,20.7,29.90,West,281,1.0,4.0,75,0.00,,,0.00,Wunderground v.1.15,2013-02-14 12:12:00,
2013-02-14 07:17:00,27.6,20.7,29.91,NW,315,3.0,3.0,75,0.00,,,0.00,Wunderground v.1.15,2013-02-14 12:17:00,
2013-02-14 07:22:00,27.7,20.8,29.91,NW,316,1.0,5.0,75,0.00,,,0.00,Wunderground v.1.15,2013-02-14 12:22:00,
2013-02-14 07:27:00,28.1,22.4,29.91,NW,316,1.0,2.0,79,0.00,,,0.00,Wunderground v.1.15,2013-02-14 12:27:00,
2013-02-14 07:32:00,30.8,27.9,29.91,WNW,297,3.0,4.0,89,0.00,,,0.00,Wunderground v.1.15,2013-02-14 12:32:00,
2013-02-14 07:37:00,31.2,27.8,29.91,NW,313,1.0,3.0,87,0.00,,,0.00,Wunderground v.1.15,2013-02-14 12:37:00,
2013-02-14 07:42:00,30.6,25.2,29.92,North,355,2.0,5.0,80,0.00,,,0.00,Wunderground v.1.15,2013-02-14 12:42:00,
2013-02-14 07:47:00,30.6,24.6,29.92,NW,306,5.0,5.0,78,0.00,,,0.00,Wunderground v.1.15,2013-02-14 12:47:00,
2013-02-14 07:52:00,30.4,23.7,29.92,NW,326,0.0,7.0,76,0.00,,,0.00,Wunderground v.1.15,2013-02-14 12:52:00,
2013-02-14 07:58:00,31.0,24.9,29.92,NNW,330,3.0,3.0,78,0.00,,,0.00,Wunderground v.1.15,2013-02-14 12:58:00,
2013-02-14 08:03:00,31.0,23.4,29.93,NNW,340,2.0,5.0,73,0.00,,,0.00,Wunderground v.1.15,2013-02-14 13:03:00,
2013-02-14 08:08:00,30.6,22.0,29.93,NW,309,6.0,6.0,70,0.00,,,0.00,Wunderground v.1.15,2013-02-14 13:08:00,
2013-02-14 08:13:00,30.5,21.9,29.93,NW,308,2.0,6.0,70,0.00,,,0.00,Wunderground v.1.15,2013-02-14 13:13:00,
2013-02-14 08:18:00,30.7,21.7,29.93,WNW,298,2.0,4.0,69,0.00,,,0.00,Wunderground v.1.15,2013-02-14 13:18:00,
2013-02-14 08:23:00,31.1,22.1,29.93,WNW,302,1.0,4.0,69,0.00,,,0.00,Wunderground v.1.15,2013-02-14 13:23:00,
2013-02-14 08:28:00,31.5,22.1,29.94,NW,319,1.0,2.0,68,0.00,,,0.00,Wunderground v.1.15,2013-02-14 13:28:00,
2013-02-14 08:33:00,31.9,22.2,29.94,NW,319,0.0,3.0,67,0.00,,,0.00,Wunderground v.1.15,2013-02-14 13:33:00,
2013-02-14 08:39:00,32.2,21.7,29.94,NW,315,3.0,6.0,65,0.00,,,0.00,Wunderground v.1.15,2013-02-14 13:39:00,
2013-02-14 08:44:00,32.8,23.0,29.95,NW,309,1.0,6.0,67,0.00,,,0.00,Wunderground v.1.15,2013-02-14 13:44:00,
2013-02-14 08:49:00,33.2,23.1,29.95,WNW,290,4.0,4.0,66,0.00,,,0.00,Wunderground v.1.15,2013-02-14 13:49:00,
2013-02-14 08:54:00,33.3,21.7,29.95,North,355,0.0,9.0,62,0.00,,,0.00,Wunderground v.1.15,2013-02-14 13:54:00,
2013-02-14 08:59:00,33.5,21.5,29.96,WNW,288,4.0,6.0,61,0.00,,,0.00,Wunderground v.1.15,2013-02-14 13:59:00,
2013-02-14 09:04:00,33.6,21.2,29.96,WNW,295,2.0,6.0,60,0.00,,,0.00,Wunderground v.1.15,2013-02-14 14:04:00,
2013-02-14 09:09:00,34.2,21.4,29.96,WNW,296,1.0,4.0,59,0.00,,,0.00,Wunderground v.1.15,2013-02-14 14:09:00,
2013-02-14 09:14:00,34.4,21.1,29.96,WNW,286,0.0,4.0,58,0.00,,,0.00,Wunderground v.1.15,2013-02-14 14:14:00,
2013-02-14 09:19:00,34.7,20.6,29.96,NNW,340,2.0,6.0,56,0.00,,,0.00,Wunderground v.1.15,2013-02-14 14:19:00,
2013-02-14 09:24:00,34.8,21.1,29.97,North,360,3.0,8.0,57,0.00,,,0.00,Wunderground v.1.15,2013-02-14 14:24:00,
2013-02-14 09:29:00,34.8,20.3,29.97,NNW,327,4.0,9.0,55,0.00,,,0.00,Wunderground v.1.15,2013-02-14 14:29:00,
2013-02-14 09:34:00,35.1,20.5,29.97,WNW,300,2.0,9.0,55,0.00,,,0.00,Wunderground v.1.15,2013-02-14 14:34:00,
2013-02-14 09:39:00,35.4,20.8,29.97,West,279,5.0,5.0,55,0.00,,,0.00,Wunderground v.1.15,2013-02-14 14:39:00,
2013-02-14 09:44:00,35.7,21.9,29.97,West,281,4.0,8.0,57,0.00,,,0.00,Wunderground v.1.15,2013-02-14 14:44:00,
2013-02-14 09:49:00,36.7,23.3,29.97,North,5,2.0,6.0,58,0.00,,,0.00,Wunderground v.1.15,2013-02-14 14:49:00,
2013-02-14 09:54:00,37.5,25.7,29.97,NNE,15,7.0,7.0,62,0.00,,,0.00,Wunderground v.1.15,2013-02-14 14:54:00,
2013-02-14 09:59:00,37.7,27.0,29.97,NNE,32,3.0,5.0,65,0.00,,,0.00,Wunderground v.1.15,2013-02-14 14:59:00,
2013-02-14 10:04:00,37.7,21.6,29.97,NNE,24,6.0,6.0,52,0.00,,,0.00,Wunderground v.1.15,2013-02-14 15:04:00,
2013-02-14 10:10:00,37.1,20.2,29.97,NNE,17,3.0,6.0,50,0.00,,,0.00,Wunderground v.1.15,2013-02-14 15:10:00,
2013-02-14 10:15:00,37.2,21.2,29.97,North,360,2.0,7.0,52,0.00,,,0.00,Wunderground v.1.15,2013-02-14 15:15:00,
2013-02-14 10:20:00,37.3,21.3,29.97,West,259,8.0,8.0,52,0.00,,,0.00,Wunderground v.1.15,2013-02-14 15:20:00,
2013-02-14 10:25:00,37.4,21.4,29.97,North,360,6.0,9.0,52,0.00,,,0.00,Wunderground v.1.15,2013-02-14 15:25:00,
2013-02-14 10:30:00,37.6,21.1,29.98,West,261,3.0,8.0,51,0.00,,,0.00,Wunderground v.1.15,2013-02-14 15:30:00,
2013-02-14 10:35:00,37.7,21.2,29.98,WNW,286,4.0,8.0,51,0.00,,,0.00,Wunderground v.1.15,2013-02-14 15:35:00,
2013-02-14 10:40:00,37.5,21.0,29.98,North,360,4.0,8.0,51,0.00,,,0.00,Wunderground v.1.15,2013-02-14 15:40:00,
2013-02-14 10:45:00,37.5,20.5,29.98,NE,42,3.0,8.0,50,0.00,,,0.00,Wunderground v.1.15,2013-02-14 15:45:00,
2013-02-14 10:50:00,37.8,20.8,29.98,NNE,20,2.0,6.0,50,0.00,,,0.00,Wunderground v.1.15,2013-02-14 15:50:00,
2013-02-14 10:55:00,37.9,20.9,29.98,WNW,286,3.0,6.0,50,0.00,,,0.00,Wunderground v.1.15,2013-02-14 15:55:00,
2013-02-14 11:00:00,38.2,21.6,29.98,SSW,207,1.0,4.0,51,0.00,,,0.00,Wunderground v.1.15,2013-02-14 16:00:00,
2013-02-14 11:05:00,37.8,20.8,29.98,West,271,4.0,9.0,50,0.00,,,0.00,Wunderground v.1.15,2013-02-14 16:05:00,
2013-02-14 11:10:00,37.5,21.0,29.98,NNE,26,2.0,8.0,51,0.00,,,0.00,Wunderground v.1.15,2013-02-14 16:10:00,
2013-02-14 11:15:00,37.7,20.7,29.98,WNW,300,3.0,9.0,50,0.00,,,0.00,Wunderground v.1.15,2013-02-14 16:15:00,
2013-02-14 11:20:00,38.7,25.6,29.98,NNE,24,2.0,13.0,59,0.00,,,0.00,Wunderground v.1.15,2013-02-14 16:20:00,
2013-02-14 11:25:00,39.8,25.8,29.99,WNW,298,3.0,13.0,57,0.00,,,0.00,Wunderground v.1.15,2013-02-14 16:25:00,
2013-02-14 11:30:00,40.2,25.3,29.98,West,273,5.0,5.0,55,0.00,,,0.00,Wunderground v.1.15,2013-02-14 16:30:00,
2013-02-14 11:35:00,40.5,28.5,29.98,NNE,29,3.0,10.0,62,0.00,,,0.00,Wunderground v.1.15,2013-02-14 16:35:00,
2013-02-14 11:40:00,42.1,31.2,29.98,West,265,2.0,4.0,65,0.00,,,0.00,Wunderground v.1.15,2013-02-14 16:40:00,
2013-02-14 11:45:00,41.6,26.6,29.98,West,260,5.0,13.0,55,0.00,,,0.00,Wunderground v.1.15,2013-02-14 16:45:00,
2013-02-14 11:50:00,39.7,21.6,29.98,NW,309,0.0,7.0,48,0.00,,,0.00,Wunderground v.1.15,2013-02-14 16:50:00,
2013-02-14 11:55:00,39.5,22.4,29.97,NNW,329,5.0,7.0,50,0.00,,,0.00,Wunderground v.1.15,2013-02-14 16:55:00,
2013-02-14 12:00:00,39.6,21.5,29.97,West,281,2.0,4.0,48,0.00,,,0.00,Wunderground v.1.15,2013-02-14 17:00:00,
2013-02-14 12:05:00,40.1,22.0,29.97,WSW,254,3.0,5.0,48,0.00,,,0.00,Wunderground v.1.15,2013-02-14 17:05:00,
2013-02-14 12:10:00,40.2,24.9,29.97,WSW,257,2.0,4.0,54,0.00,,,0.00,Wunderground v.1.15,2013-02-14 17:10:00,
2013-02-14 12:15:00,40.0,22.8,29.97,WNW,294,4.0,7.0,50,0.00,,,0.00,Wunderground v.1.15,2013-02-14 17:15:00,
2013-02-14 12:20:00,39.7,21.1,29.97,SW,217,3.0,5.0,47,0.00,,,0.00,Wunderground v.1.15,2013-02-14 17:20:00,
2013-02-14 12:25:00,39.1,20.5,29.97,WSW,240,2.0,6.0,47,0.00,,,0.00,Wunderground v.1.15,2013-02-14 17:25:00,
2013-02-14 12:30:00,39.5,21.4,29.97,SW,227,4.0,7.0,48,0.00,,,0.00,Wunderground v.1.15,2013-02-14 17:30:00,
2013-02-14 12:35:00,40.0,21.4,29.97,WSW,254,6.0,7.0,47,0.00,,,0.00,Wunderground v.1.15,2013-02-14 17:35:00,
2013-02-14 12:40:00,40.0,20.9,29.98,NW,304,8.0,8.0,46,0.00,,,0.00,Wunderground v.1.15,2013-02-14 17:40:00,
2013-02-14 12:45:00,40.1,21.0,29.98,ENE,70,3.0,9.0,46,0.00,,,0.00,Wunderground v.1.15,2013-02-14 17:45:00,
2013-02-14 12:50:00,40.2,21.6,29.97,West,273,0.0,4.0,47,0.00,,,0.00,Wunderground v.1.15,2013-02-14 17:50:00,
2013-02-14 12:55:00,40.4,21.2,29.97,WSW,254,6.0,6.0,46,0.00,,,0.00,Wunderground v.1.15,2013-02-14 17:55:00,
2013-02-14 13:00:00,40.6,21.9,29.97,SSW,200,1.0,6.0,47,0.00,,,0.00,Wunderground v.1.15,2013-02-14 18:00:00,
2013-02-14 13:05:00,40.5,19.7,29.97,West,264,4.0,8.0,43,0.00,,,0.00,Wunderground v.1.15,2013-02-14 18:05:00,
2013-02-14 13:11:00,40.3,20.1,29.97,WNW,303,7.0,7.0,44,0.00,,,0.00,Wunderground v.1.15,2013-02-14 18:11:00,
2013-02-14 13:16:00,40.6,20.9,29.97,North,355,4.0,8.0,45,0.00,,,0.00,Wunderground v.1.15,2013-02-14 18:16:00,
2013-02-14 13:21:00,40.9,20.6,29.97,West,275,2.0,9.0,44,0.00,,,0.00,Wunderground v.1.15,2013-02-14 18:21:00,
2013-02-14 13:26:00,40.8,20.5,29.97,SW,235,2.0,9.0,44,0.00,,,0.00,Wunderground v.1.15,2013-02-14 18:26:00,
2013-02-14 13:31:00,41.2,20.4,29.97,SW,227,5.0,6.0,43,0.00,,,0.00,Wunderground v.1.15,2013-02-14 18:31:00,
2013-02-14 13:36:00,41.2,20.9,29.97,NW,315,6.0,7.0,44,0.00,,,0.00,Wunderground v.1.15,2013-02-14 18:36:00,
2013-02-14 13:41:00,41.3,20.5,29.97,SSE,168,3.0,6.0,43,0.00,,,0.00,Wunderground v.1.15,2013-02-14 18:41:00,
2013-02-14 13:46:00,41.1,20.3,29.97,South,182,5.0,7.0,43,0.00,,,0.00,Wunderground v.1.15,2013-02-14 18:46:00,
2013-02-14 13:51:00,41.4,21.6,29.97,WNW,297,5.0,8.0,45,0.00,,,0.00,Wunderground v.1.15,2013-02-14 18:51:00,
2013-02-14 13:56:00,41.6,21.3,29.97,WSW,242,5.0,8.0,44,0.00,,,0.00,Wunderground v.1.15,2013-02-14 18:56:00,
2013-02-14 14:01:00,41.8,20.9,29.97,WNW,302,3.0,7.0,43,0.00,,,0.00,Wunderground v.1.15,2013-02-14 19:01:00,
2013-02-14 14:06:00,42.0,21.1,29.97,SW,228,3.0,8.0,43,0.00,,,0.00,Wunderground v.1.15,2013-02-14 19:06:00,
2013-02-14 14:11:00,44.1,34.9,29.97,SW,228,0.0,3.0,70,0.00,,,0.00,Wunderground v.1.15,2013-02-14 19:11:00,
2013-02-14 14:16:00,44.5,23.4,29.97,SW,228,0.0,3.0,43,0.00,,,0.00,Wunderground v.1.15,2013-02-14 19:16:00,
2013-02-14 14:21:00,43.7,21.5,29.97,NW,306,3.0,5.0,41,0.00,,,0.00,Wunderground v.1.15,2013-02-14 19:21:00,
2013-02-14 14:27:00,42.8,21.8,29.97,SSW,212,4.0,5.0,43,0.00,,,0.00,Wunderground v.1.15,2013-02-14 19:27:00,
2013-02-14 14:32:00,42.7,21.2,29.97,WSW,254,0.0,8.0,42,0.00,,,0.00,Wunderground v.1.15,2013-02-14 19:32:00,
2013-02-14 14:37:00,42.9,21.4,29.97,South,173,3.0,8.0,42,0.00,,,0.00,Wunderground v.1.15,2013-02-14 19:37:00,
2013-02-14 14:42:00,42.4,20.3,29.97,WSW,251,1.0,9.0,41,0.00,,,0.00,Wunderground v.1.15,2013-02-14 19:42:00,
2013-02-14 14:47:00,42.8,21.3,29.97,SW,219,1.0,9.0,42,0.00,,,0.00,Wunderground v.1.15,2013-02-14 19:47:00,
2013-02-14 14:52:00,43.4,21.2,29.98,SW,227,4.0,5.0,41,0.00,,,0.00,Wunderground v.1.15,2013-02-14 19:52:00,
2013-02-14 14:57:00,43.1,21.5,29.98,WSW,249,7.0,7.0,42,0.00,,,0.00,Wunderground v.1.15,2013-02-14 19:57:00,
2013-02-14 15:02:00,42.5,20.4,29.98,NW,315,2.0,9.0,41,0.00,,,0.00,Wunderground v.1.15,2013-02-14 20:02:00,
2013-02-14 15:07:00,42.5,21.0,29.98,WNW,298,3.0,11.0,42,0.00,,,0.00,Wunderground v.1.15,2013-02-14 20:07:00,
2013-02-14 15:12:00,42.8,20.7,29.98,South,187,9.0,10.0,41,0.00,,,0.00,Wunderground v.1.15,2013-02-14 20:12:00,
2013-02-14 15:17:00,42.7,21.2,29.99,SW,223,2.0,3.0,42,0.00,,,0.00,Wunderground v.1.15,2013-02-14 20:17:00,
2013-02-14 15:22:00,43.3,21.1,30.00,SW,221,3.0,3.0,41,0.00,,,0.00,Wunderground v.1.15,2013-02-14 20:22:00,
2013-02-14 15:27:00,43.2,21.1,30.00,SSW,213,3.0,3.0,41,0.00,,,0.00,Wunderground v.1.15,2013-02-14 20:27:00,
2013-02-14 15:32:00,42.9,20.8,30.00,SSW,202,7.0,9.0,41,0.00,,,0.00,Wunderground v.1.15,2013-02-14 20:32:00,
2013-02-14 15:37:00,43.1,21.5,30.00,South,175,1.0,4.0,42,0.00,,,0.00,Wunderground v.1.15,2013-02-14 20:37:00,
2013-02-14 15:42:00,43.6,21.4,29.99,WSW,241,2.0,4.0,41,0.00,,,0.00,Wunderground v.1.15,2013-02-14 20:42:00,
2013-02-14 15:47:00,43.8,21.6,29.99,WSW,246,2.0,3.0,41,0.00,,,0.00,Wunderground v.1.15,2013-02-14 20:47:00,
2013-02-14 15:52:00,43.2,21.6,29.99,South,183,3.0,9.0,42,0.00,,,0.00,Wunderground v.1.15,2013-02-14 20:52:00,
2013-02-14 15:57:00,43.3,21.7,29.99,South,190,1.0,3.0,42,0.00,,,0.00,Wunderground v.1.15,2013-02-14 20:57:00,
2013-02-14 16:02:00,43.8,21.6,29.99,WSW,252,3.0,3.0,41,0.00,,,0.00,Wunderground v.1.15,2013-02-14 21:02:00,
2013-02-14 16:07:00,43.5,20.7,29.99,WSW,251,3.0,4.0,40,0.00,,,0.00,Wunderground v.1.15,2013-02-14 21:07:00,
2013-02-14 16:12:00,43.0,21.4,30.00,West,271,2.0,6.0,42,0.00,,,0.00,Wunderground v.1.15,2013-02-14 21:12:00,
2013-02-14 16:17:00,43.1,21.5,30.00,WSW,239,2.0,3.0,42,0.00,,,0.00,Wunderground v.1.15,2013-02-14 21:17:00,
2013-02-14 16:22:00,42.8,21.3,30.00,West,269,4.0,8.0,42,0.00,,,0.00,Wunderground v.1.15,2013-02-14 21:22:00,
2013-02-14 16:27:00,42.5,21.0,30.00,SW,221,1.0,4.0,42,0.00,,,0.00,Wunderground v.1.15,2013-02-14 21:27:00,
2013-02-14 16:32:00,42.6,21.6,30.00,SW,215,3.0,6.0,43,0.00,,,0.00,Wunderground v.1.15,2013-02-14 21:32:00,
2013-02-14 16:37:00,42.4,20.9,30.01,SW,232,1.0,4.0,42,0.00,,,0.00,Wunderground v.1.15,2013-02-14 21:37:00,
2013-02-14 16:42:00,42.2,21.3,30.01,SSW,213,6.0,8.0,43,0.00,,,0.00,Wunderground v.1.15,2013-02-14 21:42:00,
2013-02-14 16:47:00,42.1,24.3,30.01,WSW,237,3.0,4.0,49,0.00,,,0.00,Wunderground v.1.15,2013-02-14 21:47:00,
2013-02-14 16:52:00,42.3,25.4,30.01,West,260,0.0,4.0,51,0.00,,,0.00,Wunderground v.1.15,2013-02-14 21:52:00,
2013-02-14 16:57:00,42.8,23.9,30.01,West,260,0.0,1.0,47,0.00,,,0.00,Wunderground v.1.15,2013-02-14 21:57:00,
2013-02-14 17:02:00,42.5,21.5,30.01,West,260,1.0,2.0,43,0.00,,,0.00,Wunderground v.1.15,2013-02-14 22:02:00,
2013-02-14 17:07:00,42.0,23.7,30.01,West,259,1.0,1.0,48,0.00,,,0.00,Wunderground v.1.15,2013-02-14 22:07:00,
2013-02-14 17:12:00,41.8,23.0,30.01,West,259,0.0,1.0,47,0.00,,,0.00,Wunderground v.1.15,2013-02-14 22:12:00,
2013-02-14 17:17:00,41.3,21.0,30.02,West,259,0.0,0.0,44,0.00,,,0.00,Wunderground v.1.15,2013-02-14 22:17:00,
2013-02-14 17:23:00,40.8,21.1,30.02,West,259,0.0,2.0,45,0.00,,,0.00,Wunderground v.1.15,2013-02-14 22:23:00,
2013-02-14 17:27:00,40.5,21.3,30.02,West,259,0.0,0.0,46,0.00,,,0.00,Wunderground v.1.15,2013-02-14 22:27:00,
2013-02-14 17:32:00,39.9,21.3,30.02,West,259,0.0,3.0,47,0.00,,,0.00,Wunderground v.1.15,2013-02-14 22:32:00,
2013-02-14 17:37:00,39.6,21.0,30.02,West,259,0.0,0.0,47,0.00,,,0.00,Wunderground v.1.15,2013-02-14 22:37:00,
2013-02-14 17:42:00,39.2,23.0,30.03,West,259,1.0,3.0,52,0.00,,,0.00,Wunderground v.1.15,2013-02-14 22:42:00,
2013-02-14 17:47:00,38.3,23.1,30.03,SSE,151,3.0,4.0,54,0.00,,,0.00,Wunderground v.1.15,2013-02-14 22:47:00,
2013-02-14 17:52:00,37.7,23.8,30.03,SSE,161,4.0,6.0,57,0.00,,,0.00,Wunderground v.1.15,2013-02-14 22:52:00,
2013-02-14 17:58:00,37.3,24.3,30.04,South,183,2.0,3.0,59,0.00,,,0.00,Wunderground v.1.15,2013-02-14 22:58:00,
2013-02-14 18:03:00,37.0,24.4,30.05,South,169,3.0,7.0,60,0.00,,,0.00,Wunderground v.1.15,2013-02-14 23:03:00,
2013-02-14 18:08:00,36.7,24.5,30.05,South,169,1.0,3.0,61,0.00,,,0.00,Wunderground v.1.15,2013-02-14 23:08:00,
2013-02-14 18:13:00,36.5,24.7,30.05,SSE,160,2.0,5.0,62,0.00,,,0.00,Wunderground v.1.15,2013-02-14 23:13:00,
2013-02-14 18:18:00,36.3,24.9,30.05,SSE,155,2.0,2.0,63,0.00,,,0.00,Wunderground v.1.15,2013-02-14 23:18:00,
2013-02-14 18:23:00,36.1,25.1,30.05,SSE,156,1.0,3.0,64,0.00,,,0.00,Wunderground v.1.15,2013-02-14 23:23:00,
2013-02-14 18:28:00,35.9,25.3,30.05,SSE,156,0.0,1.0,65,0.00,,,0.00,Wunderground v.1.15,2013-02-14 23:28:00,
2013-02-14 18:33:00,35.7,25.1,30.05,SSE,156,0.0,3.0,65,0.00,,,0.00,Wunderground v.1.15,2013-02-14 23:33:00,
2013-02-14 18:38:00,35.6,25.4,30.06,SSE,156,0.0,2.0,66,0.00,,,0.00,Wunderground v.1.15,2013-02-14 23:38:00,
2013-02-14 18:43:00,35.4,25.2,30.05,SSE,156,0.0,2.0,66,0.00,,,0.00,Wunderground v.1.15,2013-02-14 23:43:00,
2013-02-14 18:48:00,35.3,25.8,30.05,SSE,156,0.0,0.0,68,0.00,,,0.00,Wunderground v.1.15,2013-02-14 23:48:00,
2013-02-14 18:53:00,35.2,25.3,30.05,SSE,156,0.0,2.0,67,0.00,,,0.00,Wunderground v.1.15,2013-02-14 23:53:00,
2013-02-14 18:58:00,35.0,25.5,30.05,SSE,156,0.0,1.0,68,0.00,,,0.00,Wunderground v.1.15,2013-02-14 23:58:00,
2013-02-14 19:03:00,34.6,25.1,30.05,SSE,156,0.0,1.0,68,0.00,,,0.00,Wunderground v.1.15,2013-02-15 00:03:00,
2013-02-14 19:08:00,34.3,25.2,30.05,SSE,156,0.0,0.0,69,0.00,,,0.00,Wunderground v.1.15,2013-02-15 00:08:00,
2013-02-14 19:13:00,34.1,25.3,30.05,SSE,156,0.0,1.0,70,0.00,,,0.00,Wunderground v.1.15,2013-02-15 00:13:00,
2013-02-14 19:19:00,33.9,25.1,30.06,SSE,156,1.0,3.0,70,0.00,,,0.00,Wunderground v.1.15,2013-02-15 00:19:00,
2013-02-14 19:24:00,33.9,25.1,30.05,SSW,204,1.0,3.0,70,0.00,,,0.00,Wunderground v.1.15,2013-02-15 00:24:00,
2013-02-14 19:29:00,34.1,24.3,30.06,SW,218,2.0,5.0,67,0.00,,,0.00,Wunderground v.1.15,2013-02-15 00:29:00,
2013-02-14 19:34:00,34.4,24.9,30.05,SW,223,1.0,5.0,68,0.00,,,0.00,Wunderground v.1.15,2013-02-15 00:34:00,
2013-02-14 19:39:00,34.6,24.0,30.06,SW,230,4.0,5.0,65,0.00,,,0.00,Wunderground v.1.15,2013-02-15 00:39:00,
2013-02-14 19:44:00,34.6,23.7,30.06,WSW,250,3.0,5.0,64,0.00,,,0.00,Wunderground v.1.15,2013-02-15 00:44:00,
2013-02-14 19:49:00,34.6,23.7,30.06,SW,231,3.0,3.0,64,0.00,,,0.00,Wunderground v.1.15,2013-02-15 00:49:00,
2013-02-14 19:54:00,34.6,23.7,30.06,SW,223,6.0,7.0,64,0.00,,,0.00,Wunderground v.1.15,2013-02-15 00:54:00,
2013-02-14 19:59:00,34.7,24.9,30.07,SW,218,1.0,4.0,67,0.00,,,0.00,Wunderground v.1.15,2013-02-15 00:59:00,
2013-02-14 20:04:00,34.5,23.6,30.07,WSW,250,2.0,4.0,64,0.00,,,0.00,Wunderground v.1.15,2013-02-15 01:04:00,
2013-02-14 20:09:00,34.4,23.5,30.07,SW,218,6.0,6.0,64,0.00,,,0.00,Wunderground v.1.15,2013-02-15 01:09:00,
2013-02-14 20:14:00,34.5,23.6,30.07,SW,222,1.0,8.0,64,0.00,,,0.00,Wunderground v.1.15,2013-02-15 01:14:00,
2013-02-14 20:19:00,34.4,23.8,30.06,SW,233,0.0,3.0,65,0.00,,,0.00,Wunderground v.1.15,2013-02-15 01:19:00,
2013-02-14 20:24:00,34.3,23.7,30.06,SW,227,5.0,5.0,65,0.00,,,0.00,Wunderground v.1.15,2013-02-15 01:24:00,
2013-02-14 20:29:00,34.2,23.7,30.07,SW,232,2.0,4.0,65,0.00,,,0.00,Wunderground v.1.15,2013-02-15 01:29:00,
2013-02-14 20:34:00,34.1,23.6,30.07,SW,223,7.0,7.0,65,0.00,,,0.00,Wunderground v.1.15,2013-02-15 01:34:00,
2013-02-14 20:39:00,34.1,23.6,30.07,SSW,205,1.0,6.0,65,0.00,,,0.00,Wunderground v.1.15,2013-02-15 01:39:00,
2013-02-14 20:44:00,34.0,23.5,30.07,SW,224,2.0,6.0,65,0.00,,,0.00,Wunderground v.1.15,2013-02-15 01:44:00,
2013-02-14 20:49:00,33.9,23.4,30.07,SW,222,1.0,4.0,65,0.00,,,0.00,Wunderground v.1.15,2013-02-15 01:49:00,
2013-02-14 20:54:00,33.8,23.3,30.07,South,182,2.0,4.0,65,0.00,,,0.00,Wunderground v.1.15,2013-02-15 01:54:00,
2013-02-14 20:59:00,33.7,23.5,30.07,South,182,0.0,2.0,66,0.00,,,0.00,Wunderground v.1.15,2013-02-15 01:59:00,
2013-02-14 21:04:00,33.6,23.4,30.07,South,182,1.0,3.0,66,0.00,,,0.00,Wunderground v.1.15,2013-02-15 02:04:00,
2013-02-14 21:09:00,33.5,23.4,30.07,South,182,2.0,2.0,66,0.00,,,0.00,Wunderground v.1.15,2013-02-15 02:09:00,
2013-02-14 21:14:00,33.4,23.3,30.07,South,181,2.0,3.0,66,0.00,,,0.00,Wunderground v.1.15,2013-02-15 02:14:00,
2013-02-14 21:19:00,33.1,23.3,30.07,South,178,0.0,1.0,67,0.00,,,0.00,Wunderground v.1.15,2013-02-15 02:19:00,
2013-02-14 21:24:00,32.9,23.1,30.07,South,178,2.0,3.0,67,0.00,,,0.00,Wunderground v.1.15,2013-02-15 02:24:00,
2013-02-14 21:29:00,32.7,23.3,30.07,South,178,1.0,2.0,68,0.00,,,0.00,Wunderground v.1.15,2013-02-15 02:29:00,
2013-02-14 21:34:00,32.5,23.5,30.07,South,178,0.0,3.0,69,0.00,,,0.00,Wunderground v.1.15,2013-02-15 02:34:00,
2013-02-14 21:39:00,32.3,22.9,30.07,South,178,1.0,2.0,68,0.00,,,0.00,Wunderground v.1.15,2013-02-15 02:39:00,
2013-02-14 21:45:00,32.1,23.1,30.07,South,178,0.0,2.0,69,0.00,,,0.00,Wunderground v.1.15,2013-02-15 02:45:00,
2013-02-14 21:50:00,32.0,23.0,30.07,South,178,0.0,2.0,69,0.00,,,0.00,Wunderground v.1.15,2013-02-15 02:50:00,
2013-02-14 21:55:00,31.9,22.9,30.07,South,178,0.0,2.0,69,0.00,,,0.00,Wunderground v.1.15,2013-02-15 02:55:00,
2013-02-14 22:00:00,31.6,22.9,30.07,South,178,1.0,4.0,70,0.00,,,0.00,Wunderground v.1.15,2013-02-15 03:00:00,
2013-02-14 22:05:00,31.2,22.9,30.07,South,178,0.0,4.0,71,0.00,,,0.00,Wunderground v.1.15,2013-02-15 03:05:00,
2013-02-14 22:10:00,30.9,22.9,30.07,South,178,1.0,1.0,72,0.00,,,0.00,Wunderground v.1.15,2013-02-15 03:10:00,
2013-02-14 22:15:00,30.7,22.7,30.07,South,178,0.0,1.0,72,0.00,,,0.00,Wunderground v.1.15,2013-02-15 03:15:00,
2013-02-14 22:20:00,30.6,23.0,30.07,South,178,2.0,3.0,73,0.00,,,0.00,Wunderground v.1.15,2013-02-15 03:20:00,
2013-02-14 22:25:00,30.7,22.7,30.08,South,178,0.0,3.0,72,0.00,,,0.00,Wunderground v.1.15,2013-02-15 03:25:00,
2013-02-14 22:30:00,30.9,22.9,30.08,South,178,0.0,1.0,72,0.00,,,0.00,Wunderground v.1.15,2013-02-15 03:30:00,
2013-02-14 22:35:00,32.3,27.7,30.08,South,178,0.0,2.0,83,0.00,,,0.00,Wunderground v.1.15,2013-02-15 03:35:00,
2013-02-14 22:40:00,39.2,36.2,30.08,South,178,1.0,2.0,89,0.00,,,0.00,Wunderground v.1.15,2013-02-15 03:40:00,
2013-02-14 22:45:00,39.8,37.1,30.08,South,178,0.0,2.0,90,0.00,,,0.00,Wunderground v.1.15,2013-02-15 03:45:00,
2013-02-14 22:50:00,38.0,33.9,30.07,South,178,0.0,2.0,85,0.00,,,0.00,Wunderground v.1.15,2013-02-15 03:50:00,
2013-02-14 22:55:00,34.0,26.9,30.08,South,178,0.0,3.0,75,0.00,,,0.00,Wunderground v.1.15,2013-02-15 03:55:00,
2013-02-14 23:00:00,32.2,24.8,30.08,South,178,0.0,2.0,74,0.00,,,0.00,Wunderground v.1.15,2013-02-15 04:00:00,
2013-02-14 23:05:00,31.1,23.8,30.08,South,178,2.0,2.0,74,0.00,,,0.00,Wunderground v.1.15,2013-02-15 04:05:00,
2013-02-14 23:10:00,30.6,23.3,30.08,South,178,2.0,2.0,74,0.00,,,0.00,Wunderground v.1.15,2013-02-15 04:10:00,
2013-02-14 23:15:00,30.5,23.2,30.08,South,178,2.0,2.0,74,0.00,,,0.00,Wunderground v.1.15,2013-02-15 04:15:00,
2013-02-14 23:20:00,30.7,23.1,30.08,South,178,0.0,2.0,73,0.00,,,0.00,Wunderground v.1.15,2013-02-15 04:20:00,
2013-02-14 23:25:00,30.8,23.2,30.08,South,178,1.0,3.0,73,0.00,,,0.00,Wunderground v.1.15,2013-02-15 04:25:00,
2013-02-14 23:30:00,30.8,23.2,30.08,South,178,0.0,1.0,73,0.00,,,0.00,Wunderground v.1.15,2013-02-15 04:30:00,
2013-02-14 23:35:00,30.8,22.8,30.08,South,178,2.0,2.0,72,0.00,,,0.00,Wunderground v.1.15,2013-02-15 04:35:00,
2013-02-14 23:40:00,30.7,22.7,30.08,South,178,1.0,1.0,72,0.00,,,0.00,Wunderground v.1.15,2013-02-15 04:40:00,
2013-02-14 23:42:00,30.4,22.8,30.08,South,178,1.0,1.0,73,0.00,,,0.00,Wunderground v.1.15,2013-02-15 04:42:00,
2013-02-14 23:43:00,30.4,22.8,30.08,South,178,0.0,1.0,73,0.00,,,0.00,Wunderground v.1.15,2013-02-15 04:43:00,
2013-02-14 23:44:00,30.3,22.7,30.08,South,178,1.0,2.0,73,0.00,,,0.00,Wunderground v.1.15,2013-02-15 04:44:00,
2013-02-14 23:45:00,30.7,22.7,30.08,South,178,1.0,3.0,72,0.00,,,0.00,Wunderground v.1.15,2013-02-15 04:45:00,
2013-02-14 23:46:00,30.3,22.7,30.08,South,178,1.0,2.0,73,0.00,,,0.00,Wunderground v.1.15,2013-02-15 04:46:00,
2013-02-14 23:47:00,30.2,22.6,30.08,South,178,0.0,2.0,73,0.00,,,0.00,Wunderground v.1.15,2013-02-15 04:47:00,
2013-02-14 23:48:00,30.2,22.6,30.08,South,178,0.0,2.0,73,0.00,,,0.00,Wunderground v.1.15,2013-02-15 04:48:00,
2013-02-14 23:49:00,30.2,22.6,30.08,South,178,0.0,2.0,73,0.00,,,0.00,Wunderground v.1.15,2013-02-15 04:49:00,
2013-02-14 23:50:00,30.6,23.0,30.08,South,178,0.0,1.0,73,0.00,,,0.00,Wunderground v.1.15,2013-02-15 04:50:00,
2013-02-14 23:55:00,30.5,22.9,30.08,South,178,0.0,1.0,73,0.00,,,0.00,Wunderground v.1.15,2013-02-15 04:55:00,